| time (UTC) | temp F | wind direction | speed knots | gust knots | rain 1hr in | rain 24hr in | rain mn in | humidity % | barometer mb |
| 20260509080034 | 51 | 0 | 0.0 | 4.3 | 0.00 | 0.00 | 0.00 | 89 | 1005.8 |
| 20260509074531 | 51 | 229 | 0.9 | 3.5 | 0.00 | 0.00 | 0.00 | 89 | 1005.8 |
| 20260509073030 | 51 | 184 | 0.0 | 4.3 | 0.00 | 0.00 | 0.00 | 88 | 1005.9 |
| 20260509071530 | 52 | 248 | 0.0 | 4.3 | 0.00 | 0.00 | 0.00 | 88 | 1006.1 |
| 20260509070028 | 52 | 0 | 0.0 | 5.2 | 0.00 | 0.00 | 0.00 | 87 | 1006.0 |
| 20260509064532 | 52 | 202 | 0.0 | 2.6 | 0.00 | 0.01 | 0.00 | 86 | 1006.1 |
| 20260509063034 | 52 | 246 | 0.9 | 2.6 | 0.00 | 0.01 | 0.00 | 86 | 1006.4 |
| 20260509061540 | 52 | 206 | 1.7 | 4.3 | 0.00 | 0.01 | 0.00 | 85 | 1006.3 |
| 20260509060031 | 52 | 231 | 0.0 | 5.2 | 0.00 | 0.01 | 0.00 | 84 | 1006.6 |
| 20260509054530 | 53 | 218 | 0.0 | 3.5 | 0.00 | 0.01 | 0.00 | 83 | 1006.8 |
| 20260509053049 | 53 | 194 | 0.9 | 3.5 | 0.00 | 0.01 | 0.00 | 83 | 1006.8 |
| 20260509051527 | 53 | 163 | 1.7 | 4.3 | 0.00 | 0.01 | 0.00 | 82 | 1006.8 |
| 20260509050032 | 53 | 192 | 0.0 | 3.5 | 0.00 | 0.01 | 0.00 | 81 | 1006.9 |
| 20260509044533 | 54 | 190 | 0.0 | 2.6 | 0.00 | 0.01 | 0.00 | 80 | 1007.1 |
| 20260509043033 | 54 | 0 | 0.0 | 4.3 | 0.00 | 0.01 | 0.00 | 79 | 1007.1 |
| 20260509041528 | 54 | 183 | 0.0 | 4.3 | 0.00 | 0.01 | 0.00 | 79 | 1007.2 |
| 20260509040030 | 55 | 173 | 0.9 | 3.5 | 0.00 | 0.01 | 0.00 | 78 | 1007.3 |
| 20260509034534 | 55 | 151 | 0.0 | 5.2 | 0.00 | 0.01 | 0.01 | 78 | 1007.3 |
| 20260509033029 | 56 | 213 | 0.0 | 6.1 | 0.00 | 0.01 | 0.01 | 78 | 1007.6 |
| 20260509031533 | 55 | 0 | 0.9 | 4.3 | 0.00 | 0.01 | 0.01 | 79 | 1007.6 |
| 20260509030030 | 56 | 0 | 0.0 | 5.2 | 0.00 | 0.01 | 0.01 | 79 | 1007.5 |
| 20260509024530 | 55 | 182 | 0.9 | 4.3 | 0.00 | 0.01 | 0.01 | 79 | 1007.7 |
| 20260509023032 | 56 | 0 | 0.0 | 1.7 | 0.00 | 0.01 | 0.01 | 78 | 1007.7 |
| 20260509021528 | 56 | 0 | 0.0 | 0.0 | 0.00 | 0.01 | 0.01 | 77 | 1007.7 |
| 20260509020036 | 57 | 0 | 0.0 | 0.9 | 0.00 | 0.01 | 0.01 | 75 | 1007.7 |
| 20260509014534 | 57 | 0 | 0.0 | 1.7 | 0.00 | 0.01 | 0.01 | 74 | 1007.7 |
| 20260509013028 | 58 | 0 | 0.0 | 0.0 | 0.00 | 0.01 | 0.01 | 71 | 1007.6 |
| 20260509011528 | 58 | 0 | 0.0 | 0.0 | 0.00 | 0.01 | 0.01 | 69 | 1007.6 |
| 20260509010028 | 59 | 0 | 0.0 | 0.0 | 0.00 | 0.01 | 0.01 | 66 | 1007.5 |
| 20260509004536 | 60 | 0 | 0.0 | 1.7 | 0.00 | 0.09 | 0.01 | 64 | 1007.3 |
| 20260509003033 | 61 | 198 | 0.0 | 1.7 | 0.00 | 0.09 | 0.01 | 60 | 1007.3 |
| 20260509001528 | 61 | 0 | 0.9 | 4.3 | 0.00 | 0.09 | 0.01 | 57 | 1007.1 |
| 20260509000028 | 62 | 251 | 0.0 | 3.5 | 0.00 | 0.09 | 0.01 | 54 | 1007.1 |
| 20260508234528 | 62 | 153 | 0.9 | 4.3 | 0.00 | 0.09 | 0.01 | 53 | 1007.1 |
| 20260508233030 | 63 | 249 | 1.7 | 7.8 | 0.00 | 0.09 | 0.01 | 54 | 1007.2 |
| 20260508231529 | 63 | 0 | 0.0 | 7.0 | 0.00 | 0.09 | 0.01 | 54 | 1007.2 |
| 20260508230032 | 63 | 0 | 0.9 | 5.2 | 0.00 | 0.09 | 0.01 | 54 | 1007.3 |
| 20260508224532 | 63 | 0 | 0.9 | 6.1 | 0.00 | 0.09 | 0.01 | 56 | 1007.2 |
| 20260508223039 | 63 | 54 | 2.6 | 5.2 | 0.00 | 0.09 | 0.01 | 56 | 1007.3 |
| 20260508221532 | 63 | 180 | 2.6 | 7.8 | 0.00 | 0.09 | 0.01 | 55 | 1007.4 |
| 20260508220032 | 64 | 298 | 1.7 | 6.1 | 0.00 | 0.09 | 0.01 | 57 | 1007.4 |
| 20260508214528 | 63 | 199 | 2.6 | 8.7 | 0.00 | 0.09 | 0.01 | 60 | 1007.3 |
| 20260508213030 | 63 | 222 | 0.9 | 5.2 | 0.00 | 0.09 | 0.01 | 56 | 1007.5 |
| 20260508211538 | 63 | 236 | 1.7 | 7.0 | 0.00 | 0.09 | 0.01 | 57 | 1007.6 |
| 20260508210030 | 62 | 242 | 2.6 | 7.0 | 0.00 | 0.09 | 0.01 | 58 | 1007.9 |
| 20260508204528 | 62 | 162 | 4.3 | 7.8 | 0.00 | 0.09 | 0.01 | 57 | 1008.1 |
| 20260508203028 | 62 | 212 | 0.9 | 7.0 | 0.00 | 0.09 | 0.01 | 61 | 1008.1 |
| 20260508201526 | 62 | 173 | 2.6 | 9.6 | 0.00 | 0.09 | 0.01 | 61 | 1008.4 |
| 20260508200030 | 62 | 201 | 2.6 | 7.8 | 0.00 | 0.09 | 0.01 | 59 | 1008.6 |
| 20260508194531 | 62 | 230 | 1.7 | 8.7 | 0.00 | 0.09 | 0.01 | 59 | 1008.8 |
| 20260508193034 | 63 | 259 | 3.5 | 9.6 | 0.00 | 0.09 | 0.01 | 58 | 1008.9 |
| 20260508191537 | 62 | 271 | 1.7 | 10.4 | 0.00 | 0.09 | 0.01 | 61 | 1009.0 |
| 20260508190032 | 62 | 216 | 3.5 | 7.0 | 0.00 | 0.09 | 0.01 | 60 | 1009.4 |
| 20260508184531 | 62 | 178 | 3.5 | 9.6 | 0.00 | 0.09 | 0.01 | 61 | 1009.7 |
| 20260508183033 | 62 | 170 | 3.5 | 9.6 | 0.00 | 0.09 | 0.01 | 60 | 1009.8 |
| 20260508181528 | 61 | 190 | 3.5 | 8.7 | 0.00 | 0.09 | 0.01 | 58 | 1009.9 |
| 20260508180028 | 62 | 111 | 2.6 | 7.8 | 0.00 | 0.09 | 0.01 | 53 | 1010.0 |
| 20260508174529 | 61 | 196 | 1.7 | 9.6 | 0.00 | 0.09 | 0.01 | 47 | 1010.3 |
| 20260508173027 | 61 | 51 | 0.9 | 9.6 | 0.00 | 0.09 | 0.01 | 52 | 1010.6 |
| 20260508171535 | 61 | 185 | 3.5 | 7.0 | 0.00 | 0.09 | 0.01 | 48 | 1010.9 |
| 20260508170030 | 60 | 252 | 0.9 | 7.0 | 0.00 | 0.09 | 0.01 | 54 | 1010.9 |
| 20260508164528 | 60 | 263 | 3.5 | 7.0 | 0.00 | 0.09 | 0.01 | 54 | 1011.1 |
| 20260508163035 | 60 | 175 | 1.7 | 7.0 | 0.00 | 0.09 | 0.01 | 47 | 1011.2 |
| 20260508161532 | 59 | 248 | 0.9 | 7.8 | 0.00 | 0.09 | 0.01 | 60 | 1011.5 |
| 20260508160028 | 58 | 246 | 0.9 | 4.3 | 0.00 | 0.09 | 0.01 | 59 | 1011.6 |
| 20260508154530 | 57 | 269 | 0.9 | 6.1 | 0.00 | 0.09 | 0.01 | 68 | 1011.6 |
| 20260508153034 | 55 | 163 | 1.7 | 6.1 | 0.00 | 0.09 | 0.01 | 68 | 1011.6 |
| 20260508151530 | 55 | 222 | 0.0 | 3.5 | 0.00 | 0.09 | 0.01 | 76 | 1011.6 |
| 20260508150030 | 54 | 279 | 0.9 | 3.5 | 0.00 | 0.09 | 0.01 | 79 | 1011.8 |
| 20260508144529 | 52 | 188 | 1.7 | 4.3 | 0.00 | 0.09 | 0.01 | 82 | 1011.6 |
| 20260508143027 | 51 | 167 | 1.7 | 7.0 | 0.00 | 0.09 | 0.01 | 85 | 1011.7 |
| 20260508141530 | 50 | 138 | 2.6 | 8.7 | 0.00 | 0.09 | 0.01 | 86 | 1011.9 |
| 20260508140029 | 50 | 165 | 0.0 | 6.1 | 0.00 | 0.09 | 0.01 | 88 | 1012.0 |
| 20260508134531 | 50 | 242 | 0.9 | 5.2 | 0.00 | 0.09 | 0.01 | 92 | 1012.0 |
| 20260508133028 | 49 | 218 | 1.7 | 4.3 | 0.00 | 0.09 | 0.01 | 93 | 1012.1 |
| 20260508131531 | 47 | 0 | 0.0 | 3.5 | 0.00 | 0.09 | 0.01 | 93 | 1011.9 |
| 20260508130031 | 46 | 235 | 0.0 | 2.6 | 0.00 | 0.09 | 0.01 | 94 | 1011.9 |
| 20260508124530 | 46 | 0 | 0.0 | 3.5 | 0.00 | 0.09 | 0.01 | 94 | 1011.9 |
| 20260508123028 | 45 | 0 | 0.0 | 1.7 | 0.00 | 0.09 | 0.01 | 94 | 1012.0 |
| 20260508121527 | 44 | 183 | 0.0 | 2.6 | 0.00 | 0.09 | 0.01 | 94 | 1011.9 |
| 20260508120036 | 43 | 0 | 0.0 | 0.9 | 0.00 | 0.09 | 0.01 | 94 | 1011.7 |
| 20260508114530 | 42 | 0 | 0.0 | 0.9 | 0.00 | 0.09 | 0.01 | 94 | 1011.7 |
| 20260508113030 | 41 | 0 | 0.0 | 1.7 | 0.00 | 0.09 | 0.01 | 94 | 1011.5 |
| 20260508111531 | 40 | 0 | 0.0 | 0.0 | 0.00 | 0.09 | 0.01 | 94 | 1011.5 |
| 20260508110029 | 39 | 0 | 0.0 | 1.7 | 0.00 | 0.09 | 0.01 | 93 | 1011.4 |
| 20260508104528 | 39 | 0 | 0.0 | 0.0 | 0.00 | 0.09 | 0.01 | 93 | 1011.2 |
| 20260508103030 | 39 | 0 | 0.0 | 0.0 | 0.00 | 0.09 | 0.01 | 93 | 1011.2 |
| 20260508101530 | 40 | 0 | 0.0 | 0.0 | 0.00 | 0.09 | 0.01 | 93 | 1011.2 |
| 20260508100027 | 41 | 0 | 0.0 | 0.0 | 0.00 | 0.09 | 0.01 | 93 | 1011.3 |
| 20260508094530 | 41 | 0 | 0.0 | 1.7 | 0.00 | 0.09 | 0.01 | 94 | 1011.1 |
| 20260508093031 | 40 | 0 | 0.0 | 0.0 | 0.00 | 0.09 | 0.01 | 93 | 1011.2 |
| 20260508091531 | 41 | 0 | 0.0 | 1.7 | 0.00 | 0.09 | 0.01 | 93 | 1011.3 |
| 20260508090028 | 41 | 0 | 0.0 | 1.7 | 0.00 | 0.09 | 0.01 | 93 | 1011.3 |
| 20260508084530 | 41 | 0 | 0.0 | 2.6 | 0.00 | 0.09 | 0.01 | 93 | 1011.3 |
| 20260508083028 | 41 | 217 | 0.0 | 1.7 | 0.00 | 0.09 | 0.01 | 93 | 1011.3 |
| 20260508081539 | 41 | 0 | 0.0 | 0.0 | 0.00 | 0.09 | 0.01 | 93 | 1011.3 |